Powrót do katalogu

CZ-6A DEB

AktywnyPO
NORAD 61110·DEBRIS·🇨🇳 China

Wystrzelony Aug 6, 2024 z Taiyuan Satellite Launch Center

Loading…

Następne Przeloty (najbliższe 24 godziny)

TLE

ŚwieżeSource: Space-Track

Epoka: Sep 14, 2026, 01:01 UTC

1 61110U 24140PC  26257.04280231  .00001001  00000-0  54265-3 0  9999
2 61110  89.0350 270.0065 0117698 334.4400  25.0992 14.08306630104122

Śledź CZ-6A DEB w czasie rzeczywistym z AllMySat

Download on the App Store